Orbital Elements at Epoch 2459200.5 (2020-Dec-17.0) TDB
Reference: JPL 27 (heliocentric ecliptic J2000)
Element | Value | Uncertainty (1-sigma) | Units |
e | .1230354770815654 | 4.5003e-08 | |
a | 2.446265356017726 | 1.1269e-08 | au |
q | 2.14528793087198 | 1.09e-07 | au |
i | 6.314123061830718 | 4.5823e-06 | deg |
node | 226.91283618 | 3.3932e-05 | deg |
peri | 158.8438106819964 | 3.6796e-05 | deg |
M | 304.4116549411513 | 1.4027e-05 | deg |
tp | 2459416.291839984611 (2021-Jul-20.79183998) | 5.4831e-05 | TDB |
period | 1397.506299426952 3.83 | 9.6563e-06 2.644e-08 | d yr |
n | .2576017010782835 | 1.7799e-09 | deg/d |
Q | 2.747242781163472 | 1.2655e-08 | au |
|
| | Orbit Determination Parameters
Additional Information
|